Location: Garrison Manor
(42.9181°N, 73.9082°W)
Time: 14:45:18
(UTC+00:00)

Daily predictions for brighter satellites

Satellite Brightness Start Highest point End
(mag) Time Altitude Azimuth Time Altitude Azimuth Time Altitude Azimuth
PAYLOAD B 4.2 21:49:23 10° SSE 21:54:57 73° ENE 22:00:32 10° N
ERS-2 3.7 21:54:10 10° NE 21:56:43 18° E 21:59:16 10° SE
CZ-4B DEB 4.3 21:52:15 10° SSE 21:57:45 89° WSW 22:03:16 10° NNW
Cosmos 2184 Rocket 4.2 21:54:43 10° N 22:01:08 82° W 22:07:28 10° S
Cosmos 2333 Rocket 3.5 21:56:13 10° SW 22:01:28 38° WNW 22:06:44 10° N
Envisat 3.1 21:59:46 10° SSE 22:04:51 85° WSW 22:09:58 10° NNW
Cosmos 1743 Rocket 3.7 22:00:31 10° N 22:05:00 84° W 22:09:27 10° S
BREEZE-M TANK 3.2 21:59:28 10° WNW 22:06:25 69° SSW 22:09:42 10° ESE
USA 267 4.0 22:00:48 10° E 22:06:31 34° NNE 22:12:17 10° NW
COSMO-SKYMED 1 4.0 22:03:42 10° NE 22:06:48 19° E 22:09:53 10° SE
COSMOS 2428 3.8 22:01:46 10° SW 22:07:13 43° WNW 22:12:42 10° NNE
Lacrosse 5 rocket 2.7 22:04:48 10° S 22:07:25 19° SE 22:09:52 11° E
Cosmos 1862 3.3 22:04:13 10° N 22:08:16 90° W 22:12:16 10° S
SL-24 R/B - RUBIN 2 4.3 22:03:07 10° NNW 22:09:26 76° NE 22:15:00 10° SE
Sich 1 3.4 22:06:39 10° N 22:10:49 41° ENE 22:14:56 10° SSE
NOAA 12 4.1 22:06:52 10° SSE 22:12:09 67° ENE 22:17:27 10° N
Cosmos 2278 Rocket 2.3 22:06:46 10° NNW 22:12:29 85° WSW 22:18:09 10° SSE
Okean-O 4.2 22:10:35 10° E 22:12:54 14° ENE 22:15:14 10° NNE
GENESIS II 4.1 22:13:20 10° NNW 22:17:17 65° NE 22:21:08 10° SE
CZ-4C R/B 4.2 22:15:09 10° N 22:18:39 46° WNW 22:22:07 10° SSW
AQUARIUS 4.1 22:16:37 10° SSE 22:21:05 74° ENE 22:25:34 10° N
Okean O Rocket 1.5 22:17:13 10° SSE 22:21:32 76° ENE 22:25:56 10° N
Cosmos 44 4.4 22:18:02 10° NNW 22:22:37 29° NE 22:27:17 10° ESE
Cosmos 1151 Rocket 3.9 22:19:55 10° SSE 22:23:31 27° E 22:27:07 10° NNE
H-2A R/B 3.6 22:23:09 13° E 22:24:45 15° ENE 22:27:38 10° NNE
Cosmos 1805 Rocket 3.5 22:20:23 10° N 22:24:52 80° E 22:29:17 10° S
Radarsat Rocket 4.4 22:20:03 10° S 22:25:57 72° WSW 22:32:30 10° NNW
CZ-4 R/B 2.9 22:26:58 16° ENE 22:26:58 16° ENE 22:29:11 10° NNE
YAOGAN 6 3.6 22:23:23 10° S 22:26:58 51° W 22:30:31 10° NNW
Cosmos 2219 Rocket 4.0 22:22:55 10° WSW 22:27:39 27° NW 22:32:25 10° N
Cosmos 389 Rocket 2.3 22:25:05 10° S 22:28:28 65° E 22:31:53 10° NNE
Cosmos 1666 Rocket 3.9 22:27:02 10° N 22:31:15 43° ENE 22:35:28 10° SSE
USA 281 3.8 22:26:31 10° ESE 22:32:18 35° NE 22:38:06 10° N
Cosmos 1328 Rocket 4.3 22:29:28 10° SSE 22:33:13 30° E 22:36:41 12° NNE
CZ-4B R/B 3.4 22:29:28 10° S 22:34:49 73° WSW 22:40:08 10° NNW
Cosmos 1939 Rocket 3.2 22:32:46 10° SE 22:36:22 39° ENE 22:40:00 10° N
BREEZE-M DEB (TANK) 4.3 22:34:56 10° S 22:36:58 13° SSE 22:38:20 11° SE
ISS -2.5 22:34:49 10° W 22:37:54 33° NNW 22:39:50 18° NNE
Cosmos 2237 Rocket 2.7 22:33:05 10° SW 22:38:38 61° WNW 22:44:14 10° NNE
OE (NEXTSAT) 4.3 22:36:28 10° WSW 22:39:55 80° SSE 22:41:40 27° ENE
NOAA 11 4.1 22:34:48 10° SSE 22:40:13 78° ENE 22:45:40 10° N
Cosmos 2218 Rocket 4.2 22:34:57 10° N 22:40:52 47° ENE 22:46:45 10° SSE
CORIOLIS 4.5 22:40:50 10° S 22:46:13 71° WSW 22:51:39 10° NNW
H-2A R/B 3.6 22:45:55 10° N 22:49:43 35° WNW 22:53:34 10° SW
CREW DRAGON DEMO-1 DEB 3.3 22:47:01 10° NW 22:49:51 39° NNE 22:50:09 37° NE
CZ-4B R/B 1.2 22:47:00 11° N 22:49:59 80° W 22:53:05 10° SSW
Cosmos 2366 rocket 4.0 22:44:09 10° N 22:50:13 53° ENE 22:56:11 10° SSE
FengYun 1-2 T 4.3 22:44:47 10° SSE 22:50:21 82° WSW 22:55:54 10° NNW
Cosmos 1356 3.5 22:49:05 10° NNW 22:52:31 74° W 22:55:55 10° S
Cosmos 2369 Rocket 3.2 22:48:23 10° N 22:52:54 23° NE 22:53:22 23° ENE
SKYMED 2 3.5 22:50:51 10° NNE 22:55:10 61° ESE 22:59:27 10° S
Abrixas rocket 4.4 22:53:38 10° W 22:55:46 20° SW 22:57:53 10° SSE
Cosmos 1633 Rocket 2.9 22:56:29 10° N 23:00:53 74° E 23:05:12 10° SSE
EO 1 Delta rocket 4.5 22:57:10 10° NNE 23:02:33 60° E 23:09:21 10° S
X-37B 2.8 23:03:06 10° S 23:04:30 15° SSE 23:04:30 15° SSE
Cosmos 1867 3.8 23:00:16 10° SW 23:05:41 71° NW 23:09:40 19° NNE
Cosmos 1606 4.2 23:04:54 10° SSW 23:08:32 37° WNW 23:12:12 10° N
SAR-Lupe-4 3.4 23:08:16 28° NNE 23:10:02 87° ESE 23:13:37 10° SSW
Cosmos 1933 3.6 23:07:07 10° SSW 23:11:08 67° W 23:15:11 10° N
CZ-2C R/B 3.0 23:08:07 10° SSE 23:13:08 54° ENE 23:17:56 10° N
Cosmos 1943 Rocket 2.2 23:11:38 10° NNW 23:17:04 51° ENE 23:19:12 33° ESE
USA 215 3.4 23:12:52 24° NE 23:17:08 74° NW 23:23:38 10° WSW
SL-24 DEB 4.1 23:16:19 10° N 23:21:05 75° E 23:25:47 10° S
Cosmos 2297 3.7 23:15:25 10° NNW 23:21:08 88° WSW 23:26:51 10° SSE
ARGOS 4.4 23:24:18 24° NNE 23:24:18 24° NNE 23:26:47 10° N
Cosmos 1782 2.6 23:21:07 10° S 23:25:04 80° E 23:25:18 75° NE
Meteor 1-4 Rocket 2.7 23:23:21 10° S 23:26:26 62° S 23:26:26 62° S
SL-16 R/B 2.4 23:21:46 10° SSW 23:27:24 68° WNW 23:31:22 20° NNE
YAOGAN 1 2.9 23:30:24 50° NNE 23:30:24 50° NNE 23:33:45 10° N
ERS-2 3.9 23:27:04 10° N 23:30:19 30° WNW 23:33:32 10° SW
BREEZE-M DEB (TANK) 3.5 23:21:45 10° SW 23:31:00 55° SSE 23:31:28 52° SE
Cosmos 1689 Rocket 3.8 23:32:45 30° SW 23:32:45 30° SW 23:34:28 10° SSW
Cosmos 2285 Rocket 4.1 23:26:36 10° NNW 23:33:01 81° WSW 23:39:22 10° SSE
PSLV R/B 4.0 23:32:06 43° N 23:33:20 72° WNW 23:37:21 10° SSW
SL-24 R/B 4.4 23:32:18 25° N 23:34:23 56° WNW 23:38:01 10° SSW
Meteor 1-14 Rocket 4.2 23:29:43 10° N 23:35:42 77° E 23:41:40 10° SSE
ATLAS CENTAUR R/B 4.4 23:14:32 10° NW 23:35:55 83° NE 23:40:45 30° SE
Helios 1A Rocket 2.8 23:36:27 76° NW 23:36:27 76° NW 23:40:13 10° NNW
Nadezhda 3 Rocket 4.1 23:30:12 10° SSE 23:36:19 53° E 23:37:29 47° ENE
Cosmos 1470 Rocket 3.5 23:33:10 10° N 23:37:30 79° W 23:41:48 10° S
DMSP B5D1-3 4.5 23:41:18 64° ESE 23:41:18 64° ESE 23:46:05 10° S
COSMO-SKYMED 1 3.8 23:39:21 12° N 23:43:07 40° WNW 23:47:10 10° SW
Cosmos 1515 Rocket 3.5 23:39:23 10° SSW 23:43:44 78° W 23:43:50 78° WNW
CZ-2D R/B 4.4 23:40:43 10° S 23:44:20 43° W 23:48:00 10° NNW
Lacrosse 5 rocket 2.2 23:42:43 10° WSW 23:45:31 40° WNW 23:45:31 40° WNW
Okean-O 3.0 23:44:29 10° S 23:48:51 63° WSW 23:53:16 10° NNW
USA 267 3.1 23:47:07 50° ESE 23:49:00 80° NE 23:55:33 10° NW
Cosmos 1821 Rocket 3.8 23:46:01 10° N 23:52:14 69° E 23:53:05 61° SE
MOS 1 Rocket 3.7 23:51:15 33° N 23:53:48 78° WNW 23:59:12 10° SSW
